status,avgMeasuredTime,avgSpeed,extID,medianMeasuredTime,TIMESTAMP,vehicleCount,_id,REPORT_ID
OK,74,23,692,74,2014-08-01T07:50:00,2,20746244,206475
OK,70,24,692,70,2014-08-01T07:55:00,2,20746416,206475
OK,51,33,692,51,2014-08-01T08:00:00,2,20746747,206475
OK,57,30,692,57,2014-08-01T08:05:00,3,20747196,206475
OK,70,24,692,70,2014-08-01T08:10:00,2,20747569,206475
OK,91,18,692,91,2014-08-01T08:15:00,1,20748018,206475
OK,50,34,692,50,2014-08-01T08:20:00,1,20748467,206475
OK,50,34,692,50,2014-08-01T08:25:00,1,20748916,206475
OK,108,15,692,108,2014-08-01T08:30:00,1,20749365,206475
OK,53,32,692,53,2014-08-01T08:35:00,2,20749814,206475
OK,62,27,692,62,2014-08-01T08:40:00,5,20750263,206475
OK,89,19,692,89,2014-08-01T08:45:00,3,20750712,206475
OK,92,18,692,92,2014-08-01T08:50:00,3,20751161,206475
OK,92,18,692,92,2014-08-01T08:55:00,7,20751610,206475
OK,75,22,692,75,2014-08-01T09:00:00,7,20752059,206475
OK,79,21,692,79,2014-08-01T09:05:00,8,20752508,206475
OK,83,20,692,83,2014-08-01T09:10:00,8,20752957,206475
OK,54,31,692,54,2014-08-01T09:15:00,7,20753406,206475
OK,43,39,692,43,2014-08-01T09:20:00,6,20753855,206475
OK,59,29,692,59,2014-08-01T09:25:00,6,20754304,206475
OK,90,19,692,90,2014-08-01T09:30:00,6,20754753,206475
OK,99,17,692,99,2014-08-01T09:35:00,3,20755202,206475
OK,37,46,692,37,2014-08-01T09:40:00,1,20755651,206475
OK,37,46,692,37,2014-08-01T09:45:00,0,20756100,206475
OK,55,31,692,55,2014-08-01T09:50:00,2,20756549,206475
OK,71,24,692,71,2014-08-01T09:55:00,6,20756998,206475
OK,93,18,692,93,2014-08-01T10:00:00,5,20757447,206475
OK,68,25,692,68,2014-08-01T10:05:00,5,20757896,206475
OK,76,22,692,76,2014-08-01T10:10:00,4,20758345,206475
OK,85,20,692,85,2014-08-01T10:15:00,5,20758794,206475
OK,86,19,692,86,2014-08-01T10:20:00,4,20759243,206475
OK,59,29,692,59,2014-08-01T10:25:00,4,20759692,206475
OK,56,30,692,56,2014-08-01T10:30:00,3,20760141,206475
OK,64,26,692,64,2014-08-01T10:35:00,8,20760590,206475
OK,64,26,692,64,2014-08-01T10:40:00,7,20761039,206475
OK,77,22,692,77,2014-08-01T10:45:00,2,20761488,206475
OK,62,27,692,62,2014-08-01T10:50:00,4,20761937,206475
OK,41,41,692,41,2014-08-01T10:55:00,2,20762386,206475
OK,85,20,692,85,2014-08-01T11:00:00,2,20762835,206475
OK,74,23,692,74,2014-08-01T11:05:00,1,20763284,206475
OK,37,46,692,37,2014-08-01T11:10:00,1,20763733,206475
OK,63,27,692,63,2014-08-01T11:15:00,2,20764182,206475
OK,78,21,692,78,2014-08-01T11:20:00,5,20764630,206475
OK,78,21,692,78,2014-08-01T11:25:00,5,20765079,206475
OK,99,17,692,99,2014-08-01T11:30:00,4,20765528,206475
OK,99,17,692,99,2014-08-01T11:35:00,6,20765977,206475
OK,101,16,692,101,2014-08-01T11:40:00,4,20766426,206475
OK,89,19,692,89,2014-08-01T11:45:00,3,20766875,206475
OK,73,23,692,73,2014-08-01T11:50:00,3,20767324,206475
OK,60,28,692,60,2014-08-01T11:55:00,1,20767773,206475
OK,60,28,692,60,2014-08-01T12:00:00,5,20768222,206475
OK,75,22,692,75,2014-08-01T12:05:00,4,20768671,206475
OK,89,19,692,89,2014-08-01T12:10:00,2,20769120,206475
OK,74,23,692,74,2014-08-01T12:15:00,5,20769569,206475
OK,68,25,692,68,2014-08-01T12:20:00,4,20770018,206475
OK,44,38,692,44,2014-08-01T12:25:00,3,20770467,206475
OK,44,38,692,44,2014-08-01T12:30:00,1,20770916,206475
OK,49,34,692,49,2014-08-01T12:35:00,1,20771365,206475
OK,49,34,692,49,2014-08-01T12:40:00,1,20771814,206475
OK,78,21,692,78,2014-08-01T12:45:00,3,20772263,206475
OK,101,16,692,101,2014-08-01T12:50:00,1,20772712,206475
OK,82,20,692,82,2014-08-01T12:55:00,3,20773161,206475
OK,84,20,692,84,2014-08-01T13:00:00,4,20773610,206475
OK,87,19,692,87,2014-08-01T13:05:00,1,20774059,206475
OK,87,19,692,87,2014-08-01T13:10:00,0,20774508,206475
OK,55,31,692,55,2014-08-01T13:15:00,3,20774957,206475
OK,72,23,692,72,2014-08-01T13:20:00,5,20775406,206475
OK,75,22,692,75,2014-08-01T13:25:00,3,20775855,206475
OK,49,34,692,49,2014-08-01T13:30:00,5,20776304,206475
OK,49,34,692,49,2014-08-01T13:35:00,7,20776753,206475
OK,80,21,692,80,2014-08-01T13:40:00,4,20777202,206475
OK,80,21,692,80,2014-08-01T13:45:00,2,20777651,206475
OK,60,28,692,60,2014-08-01T13:50:00,1,20778100,206475
OK,71,24,692,71,2014-08-01T13:55:00,2,20778549,206475
OK,43,39,692,43,2014-08-01T14:00:00,1,20778998,206475
OK,51,33,692,51,2014-08-01T14:05:00,4,20779447,206475
OK,65,26,692,65,2014-08-01T14:10:00,3,20779896,206475
OK,113,15,692,113,2014-08-01T14:15:00,2,20780345,206475
OK,143,11,692,143,2014-08-01T14:20:00,1,20780794,206475
OK,143,11,692,143,2014-08-01T14:25:00,0,20781243,206475
OK,143,11,692,143,2014-08-01T14:30:00,0,20781692,206475
OK,53,32,692,53,2014-08-01T14:35:00,1,20782141,206475
OK,53,32,692,53,2014-08-01T14:40:00,0,20782590,206475
OK,42,40,692,42,2014-08-01T14:45:00,1,20783039,206475
OK,48,35,692,48,2014-08-01T14:50:00,2,20783488,206475
OK,48,35,692,48,2014-08-01T14:55:00,2,20783937,206475
OK,48,35,692,48,2014-08-01T15:00:00,0,20784386,206475
OK,66,25,692,66,2014-08-01T15:05:00,2,20784835,206475
OK,66,25,692,66,2014-08-01T15:10:00,4,20785284,206475
OK,46,37,692,46,2014-08-01T15:15:00,6,20785733,206475
OK,52,32,692,52,2014-08-01T15:20:00,7,20786182,206475
OK,70,24,692,70,2014-08-01T15:25:00,4,20786631,206475
OK,62,27,692,62,2014-08-01T15:30:00,1,20787080,206475
OK,40,42,692,40,2014-08-01T15:35:00,2,20787529,206475
OK,40,42,692,40,2014-08-01T15:40:00,3,20787978,206475
OK,45,38,692,45,2014-08-01T15:45:00,6,20788427,206475
OK,45,38,692,45,2014-08-01T15:50:00,5,20788876,206475
OK,45,38,692,45,2014-08-01T15:55:00,0,20789325,206475
OK,45,38,692,45,2014-08-01T16:00:00,0,20789774,206475
OK,52,32,692,52,2014-08-01T16:05:00,1,20790223,206475
OK,52,32,692,52,2014-08-01T16:10:00,3,20790672,206475
OK,61,28,692,61,2014-08-01T16:15:00,4,20791121,206475
OK,54,31,692,54,2014-08-01T16:20:00,3,20791570,206475
OK,73,23,692,73,2014-08-01T16:25:00,2,20792019,206475
OK,76,22,692,76,2014-08-01T16:30:00,5,20792468,206475
OK,74,23,692,74,2014-08-01T16:35:00,3,20792917,206475
OK,74,23,692,74,2014-08-01T16:40:00,1,20793366,206475
OK,74,23,692,74,2014-08-01T16:45:00,0,20793815,206475
OK,81,21,692,81,2014-08-01T16:50:00,2,20794264,206475
OK,59,29,692,59,2014-08-01T16:55:00,4,20794713,206475
OK,40,42,692,40,2014-08-01T17:00:00,2,20795162,206475
OK,55,31,692,55,2014-08-01T17:05:00,0,20795611,206475
OK,94,18,692,94,2014-08-01T17:10:00,1,20796060,206475
OK,94,18,692,94,2014-08-01T17:15:00,1,20796509,206475
OK,43,39,692,43,2014-08-01T17:20:00,1,20796958,206475
OK,54,31,692,54,2014-08-01T17:25:00,4,20797407,206475
OK,61,28,692,61,2014-08-01T17:30:00,4,20797856,206475
OK,39,43,692,39,2014-08-01T17:35:00,3,20798305,206475
OK,51,33,692,51,2014-08-01T17:40:00,4,20798754,206475
OK,65,26,692,65,2014-08-01T17:45:00,2,20799203,206475
OK,83,20,692,83,2014-08-01T17:50:00,2,20799652,206475
OK,83,20,692,83,2014-08-01T17:55:00,2,20800101,206475
OK,73,23,692,73,2014-08-01T18:00:00,0,20800550,206475
OK,47,36,692,47,2014-08-01T18:05:00,3,20800999,206475
OK,47,36,692,47,2014-08-01T18:10:00,4,20801448,206475
OK,84,20,692,84,2014-08-01T18:15:00,1,20801897,206475
OK,38,45,692,38,2014-08-01T18:20:00,1,20802346,206475
OK,37,46,692,37,2014-08-01T18:25:00,1,20802795,206475
OK,37,46,692,37,2014-08-01T18:30:00,0,20803244,206475
OK,37,46,692,37,2014-08-01T18:35:00,0,20803693,206475
OK,37,46,692,37,2014-08-01T18:40:00,0,20804142,206475
OK,96,17,692,96,2014-08-01T18:45:00,1,20804591,206475
OK,96,17,692,96,2014-08-01T18:50:00,0,20805040,206475
OK,96,17,692,96,2014-08-01T18:55:00,0,20805489,206475
OK,46,37,692,46,2014-08-01T19:00:00,1,20805938,206475
OK,46,37,692,46,2014-08-01T19:05:00,0,20806387,206475
OK,32,53,692,32,2014-08-01T19:10:00,1,20806836,206475
OK,35,48,692,35,2014-08-01T19:15:00,2,20807285,206475
OK,39,43,692,39,2014-08-01T19:20:00,0,20807734,206475
OK,39,43,692,39,2014-08-01T19:25:00,0,20808183,206475
OK,39,43,692,39,2014-08-01T19:30:00,0,20808632,206475
OK,61,28,692,61,2014-08-01T19:35:00,1,20809081,206475
OK,47,36,692,47,2014-08-01T19:40:00,2,20809530,206475
OK,55,31,692,55,2014-08-01T19:45:00,1,20809979,206475
OK,55,31,692,55,2014-08-01T19:50:00,0,20810428,206475
OK,55,31,692,55,2014-08-01T19:55:00,0,20810877,206475
OK,66,25,692,66,2014-08-01T20:00:00,1,20811323,206475
OK,62,27,692,62,2014-08-01T20:05:00,2,20811496,206475
OK,49,34,692,49,2014-08-01T20:10:00,2,20811699,206475
OK,58,29,692,58,2014-08-01T20:15:00,2,20811905,206475
OK,57,30,692,57,2014-08-01T20:20:00,5,20812114,206475
OK,57,30,692,57,2014-08-01T20:25:00,4,20812333,206475
OK,63,27,692,63,2014-08-01T20:30:00,1,20812547,206475
OK,63,27,692,63,2014-08-01T20:35:00,0,20812755,206475
OK,46,37,692,46,2014-08-01T20:40:00,1,20812958,206475
OK,46,37,692,46,2014-08-01T20:45:00,1,20813165,206475
OK,46,37,692,46,2014-08-01T20:50:00,0,20813376,206475
OK,46,37,692,46,2014-08-01T20:55:00,0,20813606,206475
OK,39,43,692,39,2014-08-01T21:00:00,1,20813844,206475
OK,38,45,692,38,2014-08-01T21:05:00,2,20814021,206475
OK,37,46,692,37,2014-08-01T21:10:00,1,20814260,206475
OK,59,29,692,59,2014-08-01T21:15:00,2,20814456,206475
OK,59,29,692,59,2014-08-01T21:20:00,0,20814663,206475
OK,32,53,692,32,2014-08-01T21:25:00,1,20814892,206475
OK,50,34,692,50,2014-08-01T21:30:00,2,20815168,206475
OK,68,25,692,68,2014-08-01T21:35:00,0,20815401,206475
OK,68,25,692,68,2014-08-01T21:40:00,0,20815625,206475
OK,65,26,692,65,2014-08-01T21:45:00,1,20815862,206475
OK,65,26,692,65,2014-08-01T21:50:00,0,20816103,206475
OK,49,34,692,49,2014-08-01T21:55:00,1,20816338,206475
OK,49,34,692,49,2014-08-01T22:00:00,0,20816606,206475
OK,49,34,692,49,2014-08-01T22:05:00,0,20817055,206475
OK,49,34,692,49,2014-08-01T22:10:00,0,20817377,206475
OK,49,34,692,49,2014-08-01T22:15:00,0,20817806,206475
OK,93,18,692,93,2014-08-01T22:20:00,1,20818096,206475
OK,93,18,692,93,2014-08-01T22:25:00,1,20818412,206475
OK,93,18,692,93,2014-08-01T22:30:00,0,20818746,206475
OK,93,18,692,93,2014-08-01T22:35:00,0,20819048,206475
OK,65,26,692,65,2014-08-01T22:40:00,1,20819230,206475
OK,65,26,692,65,2014-08-01T22:45:00,0,20819518,206475
OK,65,26,692,65,2014-08-01T22:50:00,0,20819753,206475
OK,65,26,692,65,2014-08-01T22:55:00,0,20820006,206475
OK,89,19,692,89,2014-08-01T23:00:00,1,20820182,206475
OK,89,19,692,89,2014-08-01T23:05:00,1,20820435,206475
OK,89,19,692,89,2014-08-01T23:10:00,0,20820665,206475
OK,140,12,692,140,2014-08-01T23:15:00,1,20820853,206475
OK,140,12,692,140,2014-08-01T23:20:00,0,20821103,206475
OK,140,12,692,140,2014-08-01T23:25:00,0,20821281,206475
OK,140,12,692,140,2014-08-01T23:30:00,0,20821507,206475
OK,140,12,692,140,2014-08-01T23:35:00,0,20821752,206475
OK,140,12,692,140,2014-08-01T23:40:00,0,20821931,206475
OK,140,12,692,140,2014-08-01T23:45:00,0,20822154,206475
OK,140,12,692,140,2014-08-01T23:50:00,0,20822421,206475
OK,67,25,692,67,2014-08-01T23:55:00,0,20822747,206475
OK,67,25,692,67,2014-08-02T00:00:00,0,20823045,206475
OK,67,25,692,67,2014-08-02T00:05:00,0,20823494,206475
OK,67,25,692,67,2014-08-02T00:10:00,0,20823943,206475
OK,67,25,692,67,2014-08-02T00:15:00,0,20824392,206475
OK,67,25,692,67,2014-08-02T00:20:00,0,20824841,206475
OK,67,25,692,67,2014-08-02T00:25:00,0,20825290,206475
OK,67,25,692,67,2014-08-02T00:30:00,0,20825739,206475
OK,67,25,692,67,2014-08-02T00:35:00,0,20826188,206475
OK,67,25,692,67,2014-08-02T00:40:00,0,20826637,206475
OK,67,25,692,67,2014-08-02T00:45:00,0,20827086,206475
OK,67,25,692,67,2014-08-02T00:50:00,0,20827535,206475
OK,67,25,692,67,2014-08-02T00:55:00,0,20827984,206475
OK,67,25,692,67,2014-08-02T01:00:00,0,20828433,206475
OK,67,25,692,67,2014-08-02T01:05:00,0,20828882,206475
OK,67,25,692,67,2014-08-02T01:10:00,0,20829331,206475
OK,67,25,692,67,2014-08-02T01:15:00,0,20829780,206475
OK,67,25,692,67,2014-08-02T01:20:00,0,20830229,206475
OK,67,25,692,67,2014-08-02T01:25:00,0,20830678,206475
OK,67,25,692,67,2014-08-02T01:30:00,0,20831127,206475
OK,67,25,692,67,2014-08-02T01:35:00,0,20831576,206475
OK,67,25,692,67,2014-08-02T01:40:00,0,20832025,206475
OK,67,25,692,67,2014-08-02T01:45:00,0,20832474,206475
OK,67,25,692,67,2014-08-02T01:50:00,0,20832923,206475
OK,67,25,692,67,2014-08-02T01:55:00,0,20833372,206475
OK,67,25,692,67,2014-08-02T02:00:00,0,20833821,206475
OK,43,39,692,43,2014-08-02T02:05:00,1,20834270,206475
OK,43,39,692,43,2014-08-02T02:10:00,1,20834719,206475
OK,43,39,692,43,2014-08-02T02:15:00,0,20835168,206475
OK,43,39,692,43,2014-08-02T02:20:00,0,20835617,206475
OK,43,39,692,43,2014-08-02T02:25:00,0,20836066,206475
OK,43,39,692,43,2014-08-02T02:30:00,0,20836515,206475
OK,43,39,692,43,2014-08-02T02:35:00,0,20836964,206475
OK,43,39,692,43,2014-08-02T02:40:00,0,20837413,206475
OK,72,23,692,72,2014-08-02T02:45:00,1,20837862,206475
OK,72,23,692,72,2014-08-02T02:50:00,0,20838311,206475
OK,72,23,692,72,2014-08-02T02:55:00,0,20838760,206475
OK,72,23,692,72,2014-08-02T03:00:00,0,20839209,206475
OK,72,23,692,72,2014-08-02T03:05:00,0,20839658,206475
OK,72,23,692,72,2014-08-02T03:10:00,0,20840107,206475
OK,37,46,692,37,2014-08-02T03:15:00,1,20840556,206475
OK,37,46,692,37,2014-08-02T03:20:00,1,20841005,206475
OK,37,46,692,37,2014-08-02T03:25:00,0,20841454,206475
OK,37,46,692,37,2014-08-02T03:30:00,0,20841903,206475
OK,37,46,692,37,2014-08-02T03:35:00,0,20842352,206475
OK,37,46,692,37,2014-08-02T03:40:00,0,20842801,206475
OK,37,46,692,37,2014-08-02T03:45:00,0,20843250,206475
OK,49,34,692,49,2014-08-02T03:50:00,1,20843699,206475
OK,49,34,692,49,2014-08-02T03:55:00,0,20844148,206475
OK,49,34,692,49,2014-08-02T04:00:00,0,20844597,206475
OK,67,25,692,67,2014-08-02T04:05:00,1,20844728,206475
OK,67,25,692,67,2014-08-02T04:10:00,1,20845058,206475
OK,67,25,692,67,2014-08-02T04:15:00,0,20845238,206475
OK,42,40,692,42,2014-08-02T04:20:00,1,20845594,206475
OK,42,40,692,42,2014-08-02T04:30:00,0,20846150,206475
OK,42,40,692,42,2014-08-02T04:35:00,0,20846517,206475
OK,68,25,692,68,2014-08-02T04:40:00,1,20846900,206475
OK,37,46,692,37,2014-08-02T04:45:00,1,20847159,206475
OK,37,46,692,37,2014-08-02T04:50:00,0,20847525,206475
OK,59,29,692,59,2014-08-02T04:55:00,2,20847882,206475
OK,59,29,692,59,2014-08-02T05:00:00,2,20848242,206475
OK,59,29,692,59,2014-08-02T05:05:00,0,20848406,206475
OK,59,29,692,59,2014-08-02T05:10:00,0,20848760,206475
OK,59,29,692,59,2014-08-02T05:15:00,0,20848952,206475
OK,72,23,692,72,2014-08-02T05:20:00,1,20849296,206475
OK,72,23,692,72,2014-08-02T05:30:00,0,20849821,206475
OK,71,24,692,71,2014-08-02T05:35:00,1,20850093,206475
OK,71,24,692,71,2014-08-02T05:40:00,1,20850386,206475
OK,71,24,692,71,2014-08-02T05:45:00,0,20850687,206475
OK,51,33,692,51,2014-08-02T05:50:00,1,20851045,206475
OK,51,33,692,51,2014-08-02T05:55:00,0,20851299,206475
OK,51,33,692,51,2014-08-02T06:00:00,0,20851602,206475
OK,51,33,692,51,2014-08-02T06:05:00,0,20852051,206475
OK,51,33,692,51,2014-08-02T06:10:00,0,20852500,206475
OK,66,25,692,66,2014-08-02T06:15:00,2,20852949,206475
OK,42,40,692,42,2014-08-02T06:20:00,5,20853398,206475
OK,42,40,692,42,2014-08-02T06:25:00,4,20853847,206475
OK,60,28,692,60,2014-08-02T06:30:00,2,20854296,206475
OK,38,45,692,38,2014-08-02T06:35:00,2,20854745,206475
OK,58,29,692,58,2014-08-02T06:40:00,2,20855194,206475
OK,65,26,692,65,2014-08-02T06:45:00,2,20855643,206475
OK,85,20,692,85,2014-08-02T06:50:00,1,20856092,206475
OK,85,20,692,85,2014-08-02T06:55:00,0,20856541,206475
OK,85,20,692,85,2014-08-02T07:00:00,0,20856990,206475
OK,85,20,692,85,2014-08-02T07:05:00,0,20857439,206475
OK,76,22,692,76,2014-08-02T07:10:00,1,20857888,206475
OK,76,22,692,76,2014-08-02T07:15:00,1,20858337,206475
OK,34,50,692,34,2014-08-02T07:20:00,1,20858786,206475
OK,75,22,692,75,2014-08-02T07:25:00,1,20859235,206475
OK,75,22,692,75,2014-08-02T07:30:00,1,20859684,206475
OK,115,14,692,115,2014-08-02T07:35:00,1,20860133,206475
OK,115,14,692,115,2014-08-02T07:40:00,0,20860582,206475
OK,68,25,692,68,2014-08-02T07:45:00,3,20861031,206475
OK,67,25,692,67,2014-08-02T07:50:00,3,20861480,206475
OK,60,28,692,60,2014-08-02T07:55:00,4,20861929,206475
OK,56,30,692,56,2014-08-02T08:00:00,4,20862378,206475
OK,45,38,692,45,2014-08-02T08:05:00,4,20862827,206475
OK,39,43,692,39,2014-08-02T08:10:00,2,20863276,206475
OK,61,28,692,61,2014-08-02T08:15:00,2,20863725,206475
OK,43,39,692,43,2014-08-02T08:20:00,2,20864174,206475
OK,50,34,692,50,2014-08-02T08:25:00,4,20864623,206475
OK,83,20,692,83,2014-08-02T08:30:00,5,20865072,206475
OK,83,20,692,83,2014-08-02T08:35:00,3,20865521,206475
OK,60,28,692,60,2014-08-02T08:40:00,2,20865970,206475
OK,52,32,692,52,2014-08-02T08:45:00,3,20866419,206475
OK,67,25,692,67,2014-08-02T08:50:00,5,20866868,206475
OK,65,26,692,65,2014-08-02T08:55:00,1,20867317,206475
OK,54,31,692,54,2014-08-02T09:00:00,3,20867766,206475
OK,54,31,692,54,2014-08-02T09:05:00,3,20868215,206475
OK,40,42,692,40,2014-08-02T09:10:00,2,20868664,206475
OK,50,34,692,50,2014-08-02T09:15:00,3,20869113,206475
OK,79,21,692,79,2014-08-02T09:20:00,5,20869562,206475
OK,79,21,692,79,2014-08-02T09:25:00,6,20870011,206475
OK,59,29,692,59,2014-08-02T09:30:00,5,20870460,206475
OK,75,22,692,75,2014-08-02T09:35:00,4,20870909,206475
OK,74,23,692,74,2014-08-02T09:40:00,3,20871358,206475
OK,74,23,692,74,2014-08-02T09:45:00,1,20871807,206475
OK,92,18,692,92,2014-08-02T09:50:00,1,20872256,206475
OK,90,19,692,90,2014-08-02T09:55:00,1,20872705,206475
OK,67,25,692,67,2014-08-02T10:00:00,2,20873154,206475
OK,67,25,692,67,2014-08-02T10:05:00,2,20873603,206475
OK,73,23,692,73,2014-08-02T10:10:00,1,20874052,206475
OK,56,30,692,56,2014-08-02T10:15:00,2,20874501,206475
OK,94,18,692,94,2014-08-02T10:20:00,1,20874950,206475
OK,80,21,692,80,2014-08-02T10:25:00,5,20875399,206475
OK,63,27,692,63,2014-08-02T10:30:00,4,20875848,206475
OK,58,29,692,58,2014-08-02T10:35:00,2,20876297,206475
OK,71,24,692,71,2014-08-02T10:40:00,1,20876746,206475
OK,38,45,692,38,2014-08-02T10:45:00,4,20877195,206475
OK,40,42,692,40,2014-08-02T10:50:00,5,20877644,206475
OK,52,32,692,52,2014-08-02T10:55:00,3,20878093,206475
OK,64,26,692,64,2014-08-02T11:00:00,1,20878542,206475
OK,64,26,692,64,2014-08-02T11:05:00,0,20878991,206475
OK,64,26,692,64,2014-08-02T11:10:00,0,20879440,206475
OK,38,45,692,38,2014-08-02T11:15:00,1,20879889,206475
OK,70,24,692,70,2014-08-02T11:20:00,3,20880338,206475
OK,70,24,692,70,2014-08-02T11:25:00,5,20880787,206475
OK,51,33,692,51,2014-08-02T11:30:00,5,20881236,206475
OK,62,27,692,62,2014-08-02T11:35:00,3,20881685,206475
OK,69,24,692,69,2014-08-02T11:40:00,4,20882134,206475
OK,56,30,692,56,2014-08-02T11:45:00,4,20882583,206475
OK,60,28,692,60,2014-08-02T11:50:00,5,20883032,206475
OK,62,27,692,62,2014-08-02T11:55:00,3,20883481,206475
OK,62,27,692,62,2014-08-02T12:00:00,0,20883930,206475
OK,62,27,692,62,2014-08-02T12:05:00,0,20884379,206475
OK,37,46,692,37,2014-08-02T12:10:00,1,20884828,206475
OK,41,41,692,41,2014-08-02T12:15:00,5,20885277,206475
OK,82,20,692,82,2014-08-02T12:20:00,2,20885726,206475
OK,100,17,692,100,2014-08-02T12:25:00,1,20886175,206475
OK,95,18,692,95,2014-08-02T12:30:00,2,20886624,206475
OK,95,18,692,95,2014-08-02T12:35:00,4,20887073,206475
OK,66,25,692,66,2014-08-02T12:40:00,4,20887522,206475
OK,103,16,692,103,2014-08-02T12:45:00,5,20887971,206475
OK,99,17,692,99,2014-08-02T12:50:00,5,20888420,206475
OK,99,17,692,99,2014-08-02T12:55:00,1,20888869,206475
OK,89,19,692,89,2014-08-02T13:00:00,2,20889318,206475
OK,84,20,692,84,2014-08-02T13:05:00,3,20889767,206475
OK,76,22,692,76,2014-08-02T13:10:00,1,20890216,206475
OK,53,32,692,53,2014-08-02T13:15:00,2,20890665,206475
OK,54,31,692,54,2014-08-02T13:20:00,4,20891114,206475
OK,96,17,692,96,2014-08-02T13:25:00,3,20891563,206475
OK,96,17,692,96,2014-08-02T13:30:00,1,20892012,206475
OK,100,17,692,100,2014-08-02T13:35:00,2,20892461,206475
OK,101,16,692,101,2014-08-02T13:40:00,1,20892910,206475
OK,147,11,692,147,2014-08-02T13:45:00,1,20893359,206475
OK,117,14,692,117,2014-08-02T13:50:00,2,20893808,206475
OK,59,29,692,59,2014-08-02T13:55:00,3,20894257,206475
OK,53,32,692,53,2014-08-02T14:00:00,4,20894706,206475
OK,62,27,692,62,2014-08-02T14:05:00,3,20895155,206475
OK,56,30,692,56,2014-08-02T14:10:00,2,20895604,206475
OK,36,47,692,36,2014-08-02T14:15:00,1,20896053,206475
OK,52,32,692,52,2014-08-02T14:20:00,1,20896502,206475
OK,42,40,692,42,2014-08-02T14:25:00,2,20896951,206475
OK,32,53,692,32,2014-08-02T14:30:00,2,20897400,206475
OK,32,53,692,32,2014-08-02T14:35:00,1,20897849,206475
OK,32,53,692,32,2014-08-02T14:40:00,0,20898298,206475
OK,52,32,692,52,2014-08-02T14:45:00,1,20898747,206475
OK,66,25,692,66,2014-08-02T14:50:00,3,20899196,206475
OK,83,20,692,83,2014-08-02T14:55:00,2,20899645,206475
OK,66,25,692,66,2014-08-02T15:00:00,0,20900094,206475
OK,98,17,692,98,2014-08-02T15:05:00,3,20900543,206475
OK,91,18,692,91,2014-08-02T15:10:00,3,20900992,206475
OK,48,35,692,48,2014-08-02T15:15:00,2,20901441,206475
OK,75,22,692,75,2014-08-02T15:20:00,1,20901890,206475
OK,86,19,692,86,2014-08-02T15:25:00,2,20902339,206475
OK,87,19,692,87,2014-08-02T15:30:00,2,20902788,206475
OK,69,24,692,69,2014-08-02T15:35:00,2,20903237,206475
OK,57,30,692,57,2014-08-02T15:40:00,3,20903686,206475
OK,44,38,692,44,2014-08-02T15:45:00,3,20904135,206475
OK,76,22,692,76,2014-08-02T15:50:00,5,20904584,206475
OK,77,22,692,77,2014-08-02T15:55:00,5,20905033,206475
OK,91,18,692,91,2014-08-02T16:00:00,2,20905482,206475
OK,82,20,692,82,2014-08-02T16:05:00,2,20905931,206475
OK,73,23,692,73,2014-08-02T16:10:00,1,20906380,206475
OK,71,24,692,71,2014-08-02T16:15:00,1,20906829,206475
OK,65,26,692,65,2014-08-02T16:20:00,2,20907278,206475
OK,59,29,692,59,2014-08-02T16:25:00,1,20907727,206475
OK,96,17,692,96,2014-08-02T16:30:00,1,20908176,206475
OK,99,17,692,99,2014-08-02T16:35:00,1,20908625,206475
OK,66,25,692,66,2014-08-02T16:40:00,2,20909074,206475
OK,43,39,692,43,2014-08-02T16:45:00,2,20909523,206475
OK,53,32,692,53,2014-08-02T16:50:00,1,20909972,206475
OK,77,22,692,77,2014-08-02T16:55:00,1,20910421,206475
OK,92,18,692,92,2014-08-02T17:00:00,1,20910870,206475
OK,78,21,692,78,2014-08-02T17:05:00,2,20911319,206475
OK,64,26,692,64,2014-08-02T17:10:00,1,20911768,206475
OK,41,41,692,41,2014-08-02T17:15:00,1,20912217,206475
OK,41,41,692,41,2014-08-02T17:20:00,1,20912666,206475
OK,43,39,692,43,2014-08-02T17:25:00,1,20913115,206475
OK,43,39,692,43,2014-08-02T17:30:00,1,20913564,206475
OK,43,39,692,43,2014-08-02T17:35:00,0,20914013,206475
OK,147,11,692,147,2014-08-02T17:40:00,1,20914462,206475
OK,147,11,692,147,2014-08-02T17:45:00,0,20914911,206475
OK,147,11,692,147,2014-08-02T17:50:00,0,20915360,206475
OK,147,11,692,147,2014-08-02T17:55:00,0,20915809,206475
OK,80,21,692,80,2014-08-02T18:00:00,1,20916258,206475
OK,80,21,692,80,2014-08-02T18:05:00,1,20916707,206475
OK,80,21,692,80,2014-08-02T18:10:00,0,20917156,206475
OK,53,32,692,53,2014-08-02T18:15:00,1,20917605,206475
OK,64,26,692,64,2014-08-02T18:20:00,2,20918054,206475
OK,72,23,692,72,2014-08-02T18:25:00,3,20918503,206475
OK,82,20,692,82,2014-08-02T18:30:00,2,20918952,206475
OK,93,18,692,93,2014-08-02T18:35:00,1,20919401,206475
OK,93,18,692,93,2014-08-02T18:40:00,0,20919850,206475
OK,93,18,692,93,2014-08-02T18:45:00,0,20920299,206475
OK,93,18,692,93,2014-08-02T18:50:00,0,20920748,206475
OK,93,18,692,93,2014-08-02T18:55:00,0,20921197,206475
OK,83,20,692,83,2014-08-02T19:00:00,1,20921646,206475
OK,83,20,692,83,2014-08-02T19:05:00,1,20922095,206475
OK,83,20,692,83,2014-08-02T19:10:00,0,20922544,206475
OK,79,21,692,79,2014-08-02T19:15:00,1,20922993,206475
OK,79,21,692,79,2014-08-02T19:20:00,1,20923442,206475
OK,79,21,692,79,2014-08-02T19:25:00,0,20923891,206475
OK,79,21,692,79,2014-08-02T19:30:00,0,20924340,206475
OK,79,21,692,79,2014-08-02T19:35:00,0,20924789,206475
OK,79,21,692,79,2014-08-02T19:40:00,0,20925238,206475
OK,79,21,692,79,2014-08-02T19:45:00,0,20925687,206475
OK,79,21,692,79,2014-08-02T19:50:00,0,20926136,206475
OK,107,16,692,107,2014-08-02T19:55:00,2,20926585,206475
OK,58,29,692,58,2014-08-02T20:00:00,1,20927034,206475